Tracking 18980 objects as of 19-Feb-2018
HD Live streaming from Space Station
objects crossing your sky now

COSMOS 1412

Track COSMOS 1412 now!
10-day predictions
COSMOS 1412 is classified as:


NORAD ID: 13600
Int'l Code: 1982-099A
Perigee: 898.4 km
Apogee: 999.8 km
Inclination: 64.8 °
Period: 103.9 minutes
Semi major axis: 7320 km
RCS: 3.2535 m2 (large)
Launch date: October 2, 1982
Source: Commonwealth of Independent States (former USSR) (CIS)
Launch site: TYURATAM MISSILE AND SPACE COMPLEX (TTMTR)
aabbcc
Your satellite tracking list
Your tracking list is empty




NASA's NSSDC Master Catalog

Two Line Element Set (TLE):
1 13600U 82099A   18049.55322889 -.00000103 +00000-0 -10518-4 0  9997
2 13600 064.8141 040.0439 0069245 222.3117 277.6595 13.86204890778217
Source of the keplerian elements: AFSPC